Weather reports worldwide

Advertisment
Baruth, Germany (10376): temperature & dewpoint: 10.08.2018 13:00:00 - 16.08.2018 13:00:00 (CEST)Baruth, Germany (10376): temperature 5cm & temperature -5cm: 10.08.2018 13:00:00 - 16.08.2018 13:00:00 (CEST)Baruth, Germany (10376): temperature -20cm & temperature -100cm: 10.08.2018 13:00:00 - 16.08.2018 13:00:00 (CEST)Baruth, Germany (10376): wind speed & gusts: 10.08.2018 13:00:00 - 16.08.2018 13:00:00 (CEST)Baruth, Germany (10376): wind direction: 10.08.2018 13:00:00 - 16.08.2018 13:00:00 (CEST)Baruth, Germany (10376): reduced air pressure: 10.08.2018 13:00:00 - 16.08.2018 13:00:00 (CEST)Baruth, Germany (10376): visibility: 10.08.2018 13:00:00 - 16.08.2018 13:00:00 (CEST)Baruth, Germany (10376): sunshine duration: 10.08.2018 13:00:00 - 16.08.2018 13:00:00 (CEST)Baruth, Germany (10376): precipitation: 10.08.2018 13:00:00 - 16.08.2018 13:00:00 (CEST)
Date & Time tt [°C] td [°C] tt 5cm [°C] tt -5cm [°C] tt -20cm [°C] tt -100cm [°C] ff [km/h] ff [kn] fx [km/h] fx [kn] dd ppp [hPa] vv [km] sd [min] rr [mm]
16.08.2018 13:00:00 27,5 11,9 31,7 32,5 22,8 20,4 7 4 18 10 SE 1017,5 61 59 0,0
16.08.2018 12:00:00 26,1 11,1 30,1 29,8 21,7 20,4 8 4 21 11 E 1018,0 54 60 0,0
16.08.2018 11:00:00 24,7 12,4 27,8 26,8 20,8 20,4 10 5 18 10 ESE 1018,6 47 60 0,0
16.08.2018 10:00:00 23,0 13,8 25,7 23,4 20,2 20,4 10 5 16 9 ESE 1019,1 54 60 0,0
16.08.2018 09:00:00 19,8 14,0 21,5 20,1 19,9 20,4 6 4 11 6 ESE 1019,1 33 60 0,0
16.08.2018 08:00:00 16,6 12,6 17,4 17,3 20,1 20,4 5 3 8 5 ESE 1019,5 20 60 0,0
16.08.2018 07:00:00 10,8 10,0 10,7 16,1 20,4 20,4 3 2 4 2 ESE 1019,8 9 25 0,0
16.08.2018 06:00:00 10,3 9,6 9,1 16,3 20,9 20,4 1 1 2 1 ESE 1019,7 2,8 0 0,0
16.08.2018 05:00:00 10,7 10,1 9,5 16,9 21,4 20,4 0 0 1 1 N 1019,7 0,4 0 0,0
16.08.2018 04:00:00 11,3 10,5 9,8 17,5 21,8 20,4 0 0 3 2 N 1019,6 3,6 0 0,0
16.08.2018 03:00:00 12,0 11,3 10,2 18,2 22,4 20,4 0 0 2 1 N 1019,8 0,2 0 0,0
16.08.2018 02:00:00 12,5 11,6 11,0 18,9 22,9 20,4 2 1 3 2 SE 1019,9 0,3 0 0,0
16.08.2018 01:00:00 14,0 12,8 12,1 19,8 23,5 20,4 0 0 4 2 N 1019,9 11 0 0,0
16.08.2018 00:00:00 15,6 13,2 12,9 20,9 24,0 20,4 4 2 5 3 WSW 1019,7 18 0 0,0
15.08.2018 23:00:00 17,4 13,5 14,3 22,3 24,4 20,4 2 1 5 3 WSW 1019,5 25 0 0,0
15.08.2018 22:00:00 19,2 14,0 18,5 23,6 24,8 20,4 3 2 6 3 W 1019,3 43 0 0,0
15.08.2018 21:00:00 20,8 13,2 19,4 24,7 25,2 20,5 3 2 6 3 NW 1018,9 40 0 0,0
15.08.2018 20:00:00 22,8 12,5 22,4 26,0 25,4 20,5 4 2 10 5 N 1018,4 59 0 0,0
15.08.2018 19:00:00 23,6 12,5 23,8 27,3 25,5 20,5 3 2 16 8 WNW 1018,2 66 0 0,0
15.08.2018 18:00:00 24,1 13,0 24,8 29,2 25,3 20,5 10 6 20 11 W 1018,2 70 21 0,0
15.08.2018 17:00:00 24,2 12,2 25,9 29,3 25,1 20,5 12 7 29 15 W 1018,1 70 4 0,0
15.08.2018 16:00:00 25,0 12,4 28,1 30,6 24,4 20,5 15 8 28 15 W 1018,2 70 24 0,0
15.08.2018 15:00:00 24,7 12,0 27,6 31,5 23,5 20,6 16 9 31 17 WSW 1018,1 48 52 0,0
15.08.2018 14:00:00 23,6 11,9 25,6 30,0 22,6 20,6 13 7 29 16 W 1018,2 70 43 0,0
15.08.2018 13:00:00 23,6 12,1 26,3 28,0 21,7 20,6 19 10 31 17 W 1018,5 41 55 0,0
15.08.2018 12:00:00 22,3 13,2 24,7 25,0 21,0 20,6 14 8 30 16 W 1018,8 70 48 0,0
15.08.2018 11:00:00 20,9 12,6 23,0 22,5 20,6 20,6 16 9 33 18 W 1018,6 57 42 0,0
15.08.2018 10:00:00 20,3 13,8 22,0 21,3 20,3 20,6 16 9 28 15 W 1018,2 35 58 0,0
15.08.2018 09:00:00 17,7 13,3 18,7 19,1 20,2 20,6 18 10 27 15 W 1017,9 24 51 0,0
15.08.2018 08:00:00 16,4 12,9 16,7 17,8 20,4 20,6 16 9 25 13 W 1017,4 29 8 0,0
15.08.2018 07:00:00 15,9 13,3 15,6 17,3 20,7 20,6 12 7 23 12 W 1016,9 36 0 0,0
15.08.2018 06:00:00 16,2 13,4 15,8 17,6 21,0 20,6 16 9 25 13 W 1016,3 30 0 0,0
15.08.2018 05:00:00 16,9 13,5 16,7 18,0 21,3 20,6 14 8 22 12 W 1015,8 39 0 0,0
15.08.2018 04:00:00 17,1 13,4 16,9 18,4 21,7 20,7 16 9 25 13 W 1015,6 44 0 0,0
15.08.2018 03:00:00 17,4 13,4 16,8 18,9 22,0 20,7 16 9 29 16 W 1015,2 33 0 0,0
15.08.2018 02:00:00 18,0 14,7 17,5 19,5 22,4 20,7 18 10 26 14 W 1015,0 22 0 0,0
15.08.2018 01:00:00 17,4 15,2 17,0 19,8 22,7 20,7 8 5 14 8 W 1014,8 46 0 0,0
15.08.2018 00:00:00 17,6 15,1 17,1 20,3 23,1 20,7 11 6 21 12 W 1014,5 53 0 0,0
14.08.2018 23:00:00 17,9 15,6 17,5 20,8 23,6 20,7 13 7 33 18 W 1014,1 44 0 0,0
14.08.2018 22:00:00 18,3 15,8 17,6 21,7 24,0 20,7 18 10 37 20 W 1013,6 70 0 0,0
14.08.2018 21:00:00 18,2 16,4 17,8 22,7 24,4 20,7 14 8 41 22 W 1013,0 48 0 3,7
14.08.2018 20:00:00 20,7 14,9 20,5 24,9 24,6 20,7 17 9 32 18 WSW 1011,9 70 2 0,0
14.08.2018 19:00:00 22,4 14,1 22,5 26,0 24,5 20,7 23 12 44 24 W 1011,1 70 24 0,0
14.08.2018 18:00:00 23,5 14,4 24,8 26,5 24,4 20,7 22 12 39 21 W 1011,1 42 53 0,0
14.08.2018 17:00:00 21,9 16,1 22,6 26,2 24,3 20,7 15 8 49 26 WSW 1011,1 42 20 0,2
14.08.2018 16:00:00 24,0 13,1 25,1 27,4 24,0 20,7 22 12 42 23 W 1010,6 64 4 0,0
14.08.2018 15:00:00 23,6 12,5 25,1 27,0 23,7 20,7 22 12 40 21 W 1010,8 61 9 0,0
14.08.2018 14:00:00 23,7 12,8 25,5 25,9 23,4 20,7 15 8 26 14 W 1010,5 66 3 0,0
14.08.2018 13:00:00 22,6 13,0 24,4 25,7 23,1 20,7 14 8 28 15 W 1010,4 63 5 0,0
14.08.2018 12:00:00 22,4 13,1 24,1 25,5 22,7 20,7 15 8 29 15 W 1010,5 60 10 0,0
14.08.2018 11:00:00 21,9 13,3 25,2 24,6 22,4 20,7 14 8 26 14 WSW 1010,3 43 19 0,0
14.08.2018 10:00:00 20,6 13,7 22,3 23,6 22,1 20,7 17 9 31 17 W 1010,4 49 43 0,0
14.08.2018 09:00:00 20,1 13,6 21,6 21,5 22,1 20,7 13 7 25 14 WSW 1010,1 43 60 0,0
14.08.2018 08:00:00 18,6 13,2 19,1 20,1 22,2 20,7 10 5 18 10 WSW 1009,7 48 60 0,0
14.08.2018 07:00:00 16,1 12,5 15,2 19,5 22,6 20,7 8 4 12 6 W 1009,5 47 13 0,0
14.08.2018 06:00:00 16,2 12,3 14,9 20,0 22,9 20,7 10 5 13 7 W 1009,0 70 0 0,0
14.08.2018 05:00:00 17,3 12,7 15,7 20,7 23,2 20,7 10 6 22 12 WSW 1008,6 70 0 0,0
14.08.2018 04:00:00 18,7 13,5 17,9 21,3 23,5 20,7 15 8 21 12 W 1008,1 66 0 0,0
14.08.2018 03:00:00 18,2 14,0 16,1 21,6 23,9 20,7 6 4 12 7 SW 1007,9 54 0 0,0
14.08.2018 02:00:00 18,4 14,0 15,3 22,0 24,2 20,7 5 3 8 4 S 1007,8 62 0 0,0
14.08.2018 01:00:00 19,9 14,2 17,6 22,5 24,6 20,7 4 2 11 6 SW 1007,7 66 0 0,0
14.08.2018 00:00:00 20,2 14,4 18,8 23,0 24,9 20,7 7 4 14 7 SSW 1007,7 70 0 0,0
13.08.2018 23:00:00 20,2 14,6 18,5 23,5 25,4 20,7 5 3 15 8 SSW 1007,8 70 0 0,0
13.08.2018 22:00:00 21,0 14,4 19,7 24,2 25,8 20,7 8 4 19 10 SSW 1007,6 70 0 0,0
13.08.2018 21:00:00 21,2 14,4 20,4 25,0 26,3 20,7 10 6 20 11 WSW 1007,6 70 0 0,0
13.08.2018 20:00:00 20,1 16,1 19,4 26,2 26,7 20,7 9 5 25 14 W 1007,3 69 0 0,0
13.08.2018 19:00:00 21,9 14,5 20,1 28,2 27,0 20,8 3 2 41 22 SW 1006,4 68 0 0,1
13.08.2018 18:00:00 25,5 11,1 25,8 30,3 27,0 20,8 34 18 50 27 W 1007,7 70 4 0,0
13.08.2018 17:00:00 29,4 9,3 29,9 31,6 26,8 20,8 12 7 29 16 W 1006,2 70 1 0,0
13.08.2018 16:00:00 30,6 7,5 31,7 33,5 26,3 20,8 23 12 35 19 W 1005,9 70 17 0,0
13.08.2018 15:00:00 31,1 7,3 33,6 34,2 25,4 20,8 15 8 28 15 W 1006,2 70 44 0,0
13.08.2018 14:00:00 32,2 4,9 35,2 34,0 24,3 20,8 16 9 29 16 W 1006,5 43 60 0,0
13.08.2018 13:00:00 30,6 3,8 34,7 32,3 23,2 20,8 15 8 27 14 WSW 1006,9 42 60 0,0
13.08.2018 12:00:00 29,3 7,3 33,1 29,9 22,1 20,8 7 4 13 7 SE 1007,4 61 60 0,0
13.08.2018 11:00:00 26,8 10,1 30,3 26,6 21,3 20,8 4 2 10 5 SSE 1007,9 70 60 0,0
13.08.2018 10:00:00 24,1 9,8 26,2 23,2 20,7 20,8 4 2 7 4 ESE 1008,2 70 59 0,0
13.08.2018 09:00:00 20,0 10,4 21,6 20,1 20,5 20,8 3 2 8 4 SE 1008,7 70 60 0,0
13.08.2018 08:00:00 15,1 8,7 15,7 17,6 20,7 20,8 4 2 10 5 ESE 1009,1 56 60 0,0
13.08.2018 07:00:00 11,8 7,3 10,7 16,5 21,1 20,8 8 5 13 7 ESE 1009,1 37 29 0,0
13.08.2018 06:00:00 10,2 6,4 7,2 16,9 21,6 20,8 9 5 11 6 ESE 1009,3 37 0 0,0
13.08.2018 05:00:00 10,8 6,1 8,4 17,5 22,1 20,8 7 4 13 7 E 1009,6 54 0 0,0
13.08.2018 04:00:00 11,4 6,4 8,8 18,1 22,6 20,8 6 4 11 6 E 1010,0 53 0 0,0
13.08.2018 03:00:00 12,6 6,8 11,2 18,7 23,2 20,8 9 5 11 6 E 1010,6 55 0 0,0
13.08.2018 02:00:00 12,6 7,1 9,1 19,5 23,8 20,8 7 4 10 5 E 1011,0 63 0 0,0
13.08.2018 01:00:00 12,5 7,3 9,6 20,4 24,4 20,8 5 3 10 6 E 1011,4 70 0 0,0
13.08.2018 00:00:00 12,8 7,6 10,5 21,5 25,1 20,9 5 3 8 4 ESE 1011,9 70 0 0,0
12.08.2018 23:00:00 15,2 8,0 11,8 22,8 25,7 20,9 5 3 8 4 ESE 1012,2 70 0 0,0
12.08.2018 22:00:00 16,0 9,1 13,7 24,3 26,3 20,9 2 1 5 3 E 1012,4 70 0 0,0
12.08.2018 21:00:00 18,7 8,0 15,8 26,2 26,8 20,9 2 1 4 2 SE 1012,6 70 0 0,0
12.08.2018 20:00:00 23,4 6,9 20,7 28,5 27,1 20,9 2 1 14 8 W 1012,6 70 21 0,0
12.08.2018 19:00:00 25,1 4,0 24,6 30,6 27,1 21,0 13 7 18 10 WSW 1013,0 70 45 0,0
12.08.2018 18:00:00 26,5 4,4 27,4 32,3 26,8 21,0 9 5 22 12 WSW 1013,5 70 60 0,0
12.08.2018 17:00:00 27,0 3,1 29,3 33,5 26,2 21,0 9 5 31 17 SW 1014,3 68 60 0,0
12.08.2018 16:00:00 26,7 3,8 30,3 33,9 25,4 21,1 10 6 31 17 WSW 1015,1 44 60 0,0
12.08.2018 15:00:00 26,1 4,3 29,5 33,6 24,3 21,1 20 11 41 22 S 1015,9 44 60 0,0
12.08.2018 14:00:00 25,5 5,2 29,1 32,6 23,2 21,1 12 6 30 16 WSW 1016,8 38 60 0,0
12.08.2018 13:00:00 24,3 4,9 28,5 30,5 22,0 21,1 14 7 31 17 WSW 1017,6 52 60 0,0
12.08.2018 12:00:00 23,1 5,9 26,8 28,1 20,9 21,2 16 9 30 16 SW 1018,5 46 60 0,0
12.08.2018 11:00:00 22,0 6,5 25,1 25,2 20,0 21,2 16 8 24 13 SSW 1019,0 36 60 0,0
12.08.2018 10:00:00 20,2 7,6 23,0 21,9 19,3 21,2 10 5 16 9 S 1019,3 59 60 0,0
12.08.2018 09:00:00 18,5 9,3 19,8 18,5 19,1 21,2 4 2 8 5 SE 1019,8 70 60 0,0
12.08.2018 08:00:00 13,7 8,4 14,0 15,6 19,2 21,2 3 2 5 3 E 1020,2 67 60 0,0
12.08.2018 07:00:00 8,4 6,4 7,5 14,4 19,6 21,2 0 0 5 3 N 1020,8 49 18 0,0
12.08.2018 06:00:00 7,6 5,7 5,5 14,6 20,1 21,2 2 1 7 4 S 1021,0 42 0 0,0
12.08.2018 05:00:00 8,0 6,1 5,7 15,1 20,6 21,3 3 2 8 4 SW 1021,0 54 0 0,0
12.08.2018 04:00:00 8,4 6,5 6,0 15,7 21,2 21,3 3 1 5 3 SSW 1020,9 57 0 0,0
12.08.2018 03:00:00 10,0 7,2 6,9 16,4 21,7 21,3 2 1 8 5 WSW 1021,0 70 0 0,0
12.08.2018 02:00:00 10,0 6,5 7,0 17,2 22,3 21,3 5 3 9 5 SW 1021,1 70 0 0,0
12.08.2018 01:00:00 10,2 6,5 7,6 18,1 22,9 21,3 4 2 7 4 SSW 1021,3 70 0 0,0
12.08.2018 00:00:00 11,4 6,3 8,6 19,2 23,6 21,3 5 3 9 5 W 1021,4 70 0 0,0
11.08.2018 23:00:00 13,8 6,9 9,9 20,4 24,2 21,4 6 3 9 5 WSW 1021,2 70 0 0,0
11.08.2018 22:00:00 17,1 6,0 13,5 21,7 24,7 21,4 6 3 19 11 WNW 1020,8 70 0 0,0
11.08.2018 21:00:00 18,6 4,9 16,7 23,3 25,3 21,4 11 6 26 14 WNW 1020,2 70 19 0,0
11.08.2018 20:00:00 20,4 4,5 19,3 25,3 25,6 21,5 16 9 39 21 W 1019,5 70 59 0,0
11.08.2018 19:00:00 22,1 3,6 22,9 27,7 25,6 21,5 24 13 44 24 W 1019,2 56 60 0,0
11.08.2018 18:00:00 22,2 3,7 22,7 28,8 25,4 21,5 22 12 42 23 WNW 1018,8 70 40 0,0
11.08.2018 17:00:00 24,2 5,9 26,7 29,4 25,0 21,5 25 14 48 26 W 1018,8 70 38 0,0
11.08.2018 16:00:00 24,1 5,8 27,5 30,9 24,2 21,6 28 15 54 29 W 1019,1 33 54 0,0
11.08.2018 15:00:00 23,5 6,4 26,0 29,8 23,3 21,6 23 12 41 22 W 1019,3 43 52 0,0
11.08.2018 14:00:00 22,3 7,8 25,4 27,1 22,6 21,6 21 12 37 20 W 1019,5 70 19 0,0
11.08.2018 13:00:00 23,7 8,5 26,3 26,7 21,9 21,7 14 7 40 22 W 1019,1 48 23 0,0
11.08.2018 12:00:00 21,8 8,3 23,0 23,8 21,4 21,7 21 11 36 20 W 1019,6 70 3 0,0
11.08.2018 11:00:00 21,6 7,5 22,7 22,6 21,0 21,7 20 11 32 17 WSW 1019,5 70 0 0,0
11.08.2018 10:00:00 20,5 9,4 21,5 21,4 20,6 21,7 10 5 30 16 SW 1019,6 70 27 0,0
11.08.2018 09:00:00 18,7 9,7 19,5 19,0 20,5 21,7 12 6 24 13 SW 1019,8 70 7 0,0
11.08.2018 08:00:00 18,2 10,4 18,6 18,0 20,6 21,8 15 8 24 13 SW 1019,7 70 26 0,0
11.08.2018 07:00:00 17,1 9,2 16,5 16,7 20,8 21,8 8 4 18 10 SW 1019,7 70 0 0,0
11.08.2018 06:00:00 13,4 8,6 13,0 16,2 21,2 21,8 2 1 9 5 WSW 1020,0 68 0 0,0
11.08.2018 05:00:00 12,2 8,4 10,9 16,6 21,7 21,8 7 4 13 7 ESE 1020,2 46 0 0,0
11.08.2018 04:00:00 13,3 8,6 11,9 17,3 22,2 21,8 9 5 13 7 ESE 1020,8 61 0 0,0
11.08.2018 03:00:00 14,4 8,7 13,1 18,1 22,6 21,8 9 5 14 7 ESE 1021,1 70 0 0,0
11.08.2018 02:00:00 15,5 8,6 14,4 18,7 23,1 21,8 10 5 14 7 ESE 1021,5 70 0 0,0
11.08.2018 01:00:00 14,1 9,1 13,3 19,0 23,6 21,9 9 5 12 7 ESE 1022,0 67 0 0,0
11.08.2018 00:00:00 14,6 9,2 12,8 19,7 24,2 21,9 8 4 10 5 ESE 1022,0 70 0 0,0
10.08.2018 23:00:00 14,4 10,3 12,2 20,5 24,8 21,9 4 2 5 3 SE 1022,2 63 0 0,0
10.08.2018 22:00:00 16,1 9,7 13,6 21,9 25,4 21,9 3 1 4 2 S 1022,3 70 0 0,0
10.08.2018 21:00:00 18,9 8,9 15,7 23,7 25,8 21,9 0 0 8 4 N 1021,8 70 22 0,0
10.08.2018 20:00:00 21,5 7,6 18,7 25,6 26,1 21,9 2 1 15 8 W 1021,3 70 34 0,0
10.08.2018 19:00:00 23,7 5,4 24,8 27,4 26,1 22,0 6 3 22 12 NNW 1021,1 70 53 0,0
10.08.2018 18:00:00 23,6 6,8 24,7 28,7 25,9 22,0 9 5 21 12 WNW 1021,3 70 39 0,0
10.08.2018 17:00:00 24,0 7,2 26,3 29,6 25,4 22,0 11 6 28 15 NW 1021,6 70 46 0,0
10.08.2018 16:00:00 24,1 8,0 26,3 29,8 24,8 22,0 17 9 34 18 W 1021,6 56 58 0,0
10.08.2018 15:00:00 24,1 8,2 27,1 28,7 24,1 22,0 12 6 31 17 W 1021,5 55 58 0,0
10.08.2018 14:00:00 22,9 9,5 25,3 26,1 23,6 22,0 15 8 40 22 W 1021,5 47 46 0,0
10.08.2018 13:00:00 22,1 10,2 23,4 24,2 23,3 22,0 26 14 39 21 W 1021,3 54 46 0,0

tt = temperature
td = dewpoint
tt 5cm = temperature 5cm
tt -5cm = temperature -5cm
tt -20cm = temperature -20cm
tt -100cm = temperature -100cm
ff = wind speed
fx = gusts
dd = wind direction
ppp = reduced air pressure
vv = visibility
sd = sunshine duration
rr = precipitation

Next stations